Misión y Visión

La misión es proporcionar información fiable a la navegación aérea, contribuyendo a la seguridad, regularidad y eficiencia de la Navegación Aérea Internacional

La visión es contribuir sustancialmente al desarrollo de conocimientos y a la utilización de la meteorología aeronáutica a nivel nacional e internacional, mediante la innovación y la coparticipación con sectores sociales y productivos de la sociedad.

 
  Inicio
  Metar
  Taf
  Wintemp
  SIGMET
  Avisos
  Pronósticos
  Carpeta Meteorologica
  Imágenes Satelitales
  Climatología Aeronáutica
   
  ¿Quienes Somos?
  Contacto
  Eventos



DIRECCIONES PARA INFORMES NACIONALES E INTERNACIONALES
(Metar /Speci - TAF)



http://adds.aviationweather.gov/tafs/index.php

http://www.ogimet.com/metars.phtml



PRONÓSTICOS DE AERÓDROMO

Cuando sea necesario, el encabezamiento abreviado puede incluir un cuarto grupo consistente en tres letras para identificar los boletines demorados (RRA), corregidos(CCA) o enmendados (AAA). Los boletines adicionales demorados, corregidos o enmendados deben identificarse con las letras RRB, RRC, etc.; CCB, CCC,etc.;AAB, AAC,etc.



ESTACIONES DESCRIPCION
MPTO (M) 240200Z 00000KT 9999 FEW020 23/23 Q1011 NOSIG  
MPBO (M) 240100Z 06006KT 9999 FEW016 Q1012  
MPCH (M) 240100Z 00000KT 9999 SCT020 Q1012  
MPSA (M)  
MPCE (M)  
MPPN (M)  
MPSM (M) 240300Z 00000KT 9999 FEW020 SCT080 24/22 Q1011  
MPJE (M)  
MPPA (M) 240200Z VRB03KT 9000 FEW020 24/21 Q1012 RMK HZ ALQDS=  
MPMG (M) 240300Z 28003KT 9999 FEW020 26/22 Q1011 NOSIG  
MPDA (M) 240300Z 03004KT 9999 SCT020 27/22 Q1009  
MPVR (M)  
MPWN (M)  
MPOA (M)  
MPMF (M)  
MPEJ (M)  


CLIMATICAS

MPTO

23-02-2017

PCPN

T° MAX

T° MIN

VIENTO MAX (KT)

HORA

VIENTO PREDOM (KT)

0.0

30.4

19.9

17009KT

1900Z

S 05KT

CLIMATICAS

MPMG

23-02-2017

PCPN

T° MAX

T° MIN

VIENTO MAX (KT)

HORA

VIENTO PREDOM (KT)

     0.0

30.3

21.8

20010kT

          2000Z                             S

 

 
 



























  Noticias AAC
  Directorio
  Contáctenos
  Historia
  Quejas y Sugerencias
  Etica y Transparencia

  Gestión SSP/SMS
  Seguridad Aérea
  Navegación Aérea
  Transporte Aéreo

  Tramites
  Áeronaves de Alquiler

  Meteorología
  I.S.F.P.A
  Notam
  Peligro Aviario
  AVSEC
  UPIA
  Permisos
 




DECLARACIÓN DE PRIVACIDAD